Time,TemperatureF,DewpointF,PressureIn,WindDirection,WindDirectionDegrees,WindSpeedMPH,WindSpeedGustMPH,Humidity,HourlyPrecipIn,Conditions,Clouds,dailyrainin,SoftwareType,DateUTC
2013-02-03 00:12:00,40.1,40.0,30.34,South,170,1.0,4.0,98,0.00,,,0.00,weatherlink.com 1.10,2013-02-03 08:12:00,
2013-02-03 00:27:00,40.1,40.0,30.36,South,178,0.0,2.0,98,0.00,,,0.00,weatherlink.com 1.10,2013-02-03 08:27:00,
2013-02-03 00:42:00,40.1,40.0,30.36,SE,133,0.0,1.0,98,0.00,,,0.00,weatherlink.com 1.10,2013-02-03 08:42:00,
2013-02-03 00:57:00,40.0,40.0,30.35,SSE,158,1.0,2.0,98,0.00,,,0.00,weatherlink.com 1.10,2013-02-03 08:57:00,
2013-02-03 01:12:00,39.8,39.0,30.34,South,188,0.0,3.0,98,0.00,,,0.00,weatherlink.com 1.10,2013-02-03 09:12:00,
2013-02-03 01:27:00,39.8,39.0,30.34,South,188,1.0,0.0,98,0.00,,,0.00,weatherlink.com 1.10,2013-02-03 09:27:00,
2013-02-03 01:42:00,39.7,39.0,30.33,SSE,150,0.0,4.0,98,0.00,,,0.00,weatherlink.com 1.10,2013-02-03 09:42:00,
2013-02-03 01:57:00,39.7,39.0,30.34,WSW,240,0.0,2.0,98,0.00,,,0.00,weatherlink.com 1.10,2013-02-03 09:57:00,
2013-02-03 02:12:00,39.7,39.0,30.34,South,179,0.0,4.0,98,0.00,,,0.00,weatherlink.com 1.10,2013-02-03 10:12:00,
2013-02-03 02:27:00,39.6,39.0,30.34,SSW,194,0.0,3.0,98,0.00,,,0.00,weatherlink.com 1.10,2013-02-03 10:27:00,
2013-02-03 02:43:00,39.5,39.0,30.34,SE,146,0.0,6.0,98,0.00,,,0.00,weatherlink.com 1.10,2013-02-03 10:43:00,
2013-02-03 02:57:00,39.4,39.0,30.33,SW,223,0.0,5.0,98,0.00,,,0.00,weatherlink.com 1.10,2013-02-03 10:57:00,
2013-02-03 03:12:00,39.3,39.0,30.33,SSW,206,0.0,4.0,98,0.00,,,0.00,weatherlink.com 1.10,2013-02-03 11:12:00,
2013-02-03 03:27:00,39.1,39.0,30.34,North,5,0.0,3.0,98,0.00,,,0.00,weatherlink.com 1.10,2013-02-03 11:27:00,
2013-02-03 03:42:00,39.0,39.0,30.34,ENE,65,0.0,3.0,98,0.00,,,0.00,weatherlink.com 1.10,2013-02-03 11:42:00,
2013-02-03 03:58:00,39.0,39.0,30.34,SSE,159,0.0,2.0,98,0.00,,,0.00,weatherlink.com 1.10,2013-02-03 11:58:00,
2013-02-03 04:12:00,38.8,38.0,30.34,East,98,0.0,4.0,98,0.00,,,0.00,weatherlink.com 1.10,2013-02-03 12:12:00,
2013-02-03 04:28:00,38.6,38.0,30.34,ESE,105,0.0,4.0,98,0.00,,,0.00,weatherlink.com 1.10,2013-02-03 12:28:00,
2013-02-03 04:42:00,38.5,38.0,30.34,SSW,193,0.0,3.0,98,0.00,,,0.00,weatherlink.com 1.10,2013-02-03 12:42:00,
2013-02-03 04:57:00,38.4,38.0,30.34,SE,134,0.0,5.0,98,0.00,,,0.00,weatherlink.com 1.10,2013-02-03 12:57:00,
2013-02-03 05:12:00,38.3,38.0,30.34,East,97,0.0,3.0,98,0.00,,,0.00,weatherlink.com 1.10,2013-02-03 13:12:00,
2013-02-03 05:28:00,38.3,38.0,30.34,SW,229,0.0,6.0,99,0.00,,,0.00,weatherlink.com 1.10,2013-02-03 13:28:00,
2013-02-03 05:43:00,38.4,38.0,30.35,SW,236,0.0,4.0,99,0.00,,,0.00,weatherlink.com 1.10,2013-02-03 13:43:00,
2013-02-03 05:57:00,38.4,38.0,30.35,South,180,2.0,5.0,99,0.00,,,0.00,weatherlink.com 1.10,2013-02-03 13:57:00,
2013-02-03 06:13:00,38.6,38.0,30.34,SSW,210,1.0,5.0,99,0.00,,,0.00,weatherlink.com 1.10,2013-02-03 14:13:00,
2013-02-03 06:27:00,38.7,39.0,30.35,SW,218,1.0,3.0,99,0.00,,,0.00,weatherlink.com 1.10,2013-02-03 14:27:00,
2013-02-03 06:42:00,38.8,39.0,30.34,SSW,198,0.0,1.0,99,0.00,,,0.00,weatherlink.com 1.10,2013-02-03 14:42:00,
2013-02-03 06:58:00,38.9,39.0,30.35,SSE,164,0.0,3.0,99,0.00,,,0.00,weatherlink.com 1.10,2013-02-03 14:58:00,
2013-02-03 07:13:00,39.1,39.0,30.34,SSW,194,0.0,4.0,99,0.00,,,0.00,weatherlink.com 1.10,2013-02-03 15:13:00,
2013-02-03 07:27:00,39.2,39.0,30.34,South,186,0.0,4.0,99,0.00,,,0.00,weatherlink.com 1.10,2013-02-03 15:27:00,
2013-02-03 07:42:00,39.4,39.0,30.33,SW,215,1.0,4.0,99,0.00,,,0.00,weatherlink.com 1.10,2013-02-03 15:42:00,
2013-02-03 07:57:00,39.6,39.0,30.34,SW,220,2.0,7.0,99,0.00,,,0.00,weatherlink.com 1.10,2013-02-03 15:57:00,
2013-02-03 08:12:00,39.7,40.0,30.35,SSW,213,0.0,3.0,99,0.00,,,0.00,weatherlink.com 1.10,2013-02-03 16:12:00,
2013-02-03 08:28:00,40.0,40.0,30.35,SSE,148,0.0,3.0,99,0.00,,,0.00,weatherlink.com 1.10,2013-02-03 16:28:00,
2013-02-03 08:43:00,40.2,40.0,30.36,South,171,0.0,4.0,99,0.00,,,0.00,weatherlink.com 1.10,2013-02-03 16:43:00,
2013-02-03 09:13:00,40.5,40.0,30.36,SSW,209,0.0,3.0,99,0.00,,,0.00,weatherlink.com 1.10,2013-02-03 17:13:00,
2013-02-03 09:28:00,40.7,41.0,30.35,SSW,192,0.0,7.0,99,0.00,,,0.00,weatherlink.com 1.10,2013-02-03 17:28:00,
2013-02-03 09:43:00,40.7,41.0,30.34,SSW,213,0.0,3.0,99,0.00,,,0.00,weatherlink.com 1.10,2013-02-03 17:43:00,
2013-02-03 09:58:00,40.6,40.0,30.34,WSW,255,1.0,4.0,99,0.00,,,0.00,weatherlink.com 1.10,2013-02-03 17:58:00,
2013-02-03 10:13:00,40.7,41.0,30.35,South,175,0.0,2.0,99,0.00,,,0.00,weatherlink.com 1.10,2013-02-03 18:13:00,
2013-02-03 10:28:00,40.7,41.0,30.37,SSW,203,0.0,6.0,99,0.00,,,0.00,weatherlink.com 1.10,2013-02-03 18:28:00,
2013-02-03 10:43:00,40.9,41.0,30.37,South,169,0.0,2.0,99,0.00,,,0.00,weatherlink.com 1.10,2013-02-03 18:43:00,
2013-02-03 10:58:00,41.4,41.0,30.36,WSW,242,4.0,4.0,100,0.00,,,0.00,weatherlink.com 1.10,2013-02-03 18:58:00,
2013-02-03 11:13:00,41.7,42.0,30.36,SSW,200,0.0,5.0,99,0.00,,,0.00,weatherlink.com 1.10,2013-02-03 19:13:00,
2013-02-03 11:28:00,41.8,42.0,30.35,South,180,0.0,6.0,99,0.00,,,0.00,weatherlink.com 1.10,2013-02-03 19:28:00,
2013-02-03 11:58:00,42.0,42.0,30.35,SSW,193,2.0,6.0,100,0.00,,,0.00,weatherlink.com 1.10,2013-02-03 19:58:00,
2013-02-03 12:13:00,42.1,42.0,30.35,West,260,3.0,8.0,99,0.00,,,0.00,weatherlink.com 1.10,2013-02-03 20:13:00,
2013-02-03 12:28:00,42.3,42.0,30.35,SW,219,0.0,5.0,99,0.00,,,0.00,weatherlink.com 1.10,2013-02-03 20:28:00,
2013-02-03 12:43:00,42.5,43.0,30.34,SE,133,2.0,7.0,100,0.00,,,0.00,weatherlink.com 1.10,2013-02-03 20:43:00,
2013-02-03 12:58:00,42.8,43.0,30.33,South,187,1.0,6.0,99,0.00,,,0.00,weatherlink.com 1.10,2013-02-03 20:58:00,
2013-02-03 13:13:00,42.9,43.0,30.32,SE,142,2.0,5.0,99,0.00,,,0.00,weatherlink.com 1.10,2013-02-03 21:13:00,
2013-02-03 13:28:00,42.9,43.0,30.31,SE,138,0.0,7.0,99,0.00,,,0.00,weatherlink.com 1.10,2013-02-03 21:28:00,
2013-02-03 13:43:00,42.9,43.0,30.31,SSW,200,3.0,5.0,99,0.00,,,0.00,weatherlink.com 1.10,2013-02-03 21:43:00,
2013-02-03 13:58:00,43.0,43.0,30.31,South,191,2.0,8.0,99,0.00,,,0.00,weatherlink.com 1.10,2013-02-03 21:58:00,
2013-02-03 14:13:00,43.2,43.0,30.31,SSW,211,5.0,6.0,99,0.00,,,0.00,weatherlink.com 1.10,2013-02-03 22:13:00,
2013-02-03 14:28:00,43.3,43.0,30.31,SW,220,0.0,6.0,99,0.00,,,0.00,weatherlink.com 1.10,2013-02-03 22:28:00,
2013-02-03 14:43:00,43.4,43.0,30.31,SSW,209,0.0,6.0,98,0.00,,,0.00,weatherlink.com 1.10,2013-02-03 22:43:00,
2013-02-03 14:58:00,43.4,43.0,30.31,SSW,195,0.0,2.0,98,0.00,,,0.00,weatherlink.com 1.10,2013-02-03 22:58:00,
2013-02-03 15:13:00,43.5,43.0,30.32,SSW,198,0.0,2.0,98,0.00,,,0.00,weatherlink.com 1.10,2013-02-03 23:13:00,
2013-02-03 15:28:00,43.5,43.0,30.32,SSW,198,2.0,2.0,98,0.00,,,0.00,weatherlink.com 1.10,2013-02-03 23:28:00,
2013-02-03 15:43:00,43.6,43.0,30.31,SSW,198,0.0,3.0,98,0.01,,,0.01,weatherlink.com 1.10,2013-02-03 23:43:00,
2013-02-03 15:58:00,43.5,43.0,30.31,SSW,198,1.0,1.0,98,0.01,,,0.01,weatherlink.com 1.10,2013-02-03 23:58:00,
2013-02-03 16:13:00,43.5,43.0,30.30,SSW,209,1.0,4.0,98,0.01,,,0.01,weatherlink.com 1.10,2013-02-04 00:13:00,
2013-02-03 16:28:00,43.4,43.0,30.30,SW,231,2.0,3.0,98,0.02,,,0.02,weatherlink.com 1.10,2013-02-04 00:28:00,
2013-02-03 16:58:00,43.3,43.0,30.30,SSW,210,1.0,3.0,99,0.02,,,0.03,weatherlink.com 1.10,2013-02-04 00:58:00,
2013-02-03 17:13:00,43.3,43.0,30.30,South,188,0.0,4.0,99,0.02,,,0.03,weatherlink.com 1.10,2013-02-04 01:13:00,
2013-02-03 17:28:00,43.4,43.0,30.30,SSW,192,2.0,4.0,99,0.02,,,0.04,weatherlink.com 1.10,2013-02-04 01:28:00,
2013-02-03 17:43:00,43.4,43.0,30.29,South,186,0.0,4.0,99,0.02,,,0.04,weatherlink.com 1.10,2013-02-04 01:43:00,
2013-02-03 17:58:00,43.3,43.0,30.29,South,171,0.0,1.0,99,0.02,,,0.05,weatherlink.com 1.10,2013-02-04 01:58:00,
2013-02-03 18:13:00,43.3,43.0,30.30,South,171,0.0,1.0,99,0.03,,,0.06,weatherlink.com 1.10,2013-02-04 02:13:00,
2013-02-03 18:29:00,43.1,43.0,30.29,South,171,0.0,0.0,99,0.02,,,0.06,weatherlink.com 1.10,2013-02-04 02:29:00,
2013-02-03 18:44:00,43.1,43.0,30.29,South,171,0.0,0.0,99,0.03,,,0.07,weatherlink.com 1.10,2013-02-04 02:44:00,
2013-02-03 18:58:00,43.1,43.0,30.29,South,171,0.0,0.0,99,0.02,,,0.07,weatherlink.com 1.10,2013-02-04 02:58:00,
2013-02-03 19:13:00,43.1,43.0,30.29,South,171,0.0,0.0,99,0.02,,,0.08,weatherlink.com 1.10,2013-02-04 03:13:00,
2013-02-03 19:28:00,43.1,43.0,30.29,South,171,0.0,0.0,99,0.01,,,0.08,weatherlink.com 1.10,2013-02-04 03:28:00,
2013-02-03 19:43:00,43.1,43.0,30.28,South,171,0.0,0.0,99,0.02,,,0.09,weatherlink.com 1.10,2013-02-04 03:43:00,
2013-02-03 19:59:00,43.2,43.0,30.28,South,171,0.0,0.0,99,0.02,,,0.09,weatherlink.com 1.10,2013-02-04 03:59:00,
2013-02-03 20:14:00,43.3,43.0,30.28,South,171,0.0,0.0,99,0.01,,,0.09,weatherlink.com 1.10,2013-02-04 04:14:00,
2013-02-03 20:28:00,43.3,43.0,30.27,South,171,0.0,0.0,99,0.02,,,0.10,weatherlink.com 1.10,2013-02-04 04:28:00,
2013-02-03 20:43:00,43.3,43.0,30.27,South,171,0.0,0.0,99,0.01,,,0.10,weatherlink.com 1.10,2013-02-04 04:43:00,
2013-02-03 20:58:00,43.3,43.0,30.27,South,171,0.0,0.0,99,0.01,,,0.10,weatherlink.com 1.10,2013-02-04 04:58:00,
2013-02-03 21:13:00,43.2,43.0,30.27,South,171,0.0,0.0,99,0.01,,,0.10,weatherlink.com 1.10,2013-02-04 05:13:00,
2013-02-03 21:28:00,43.3,43.0,30.27,South,171,0.0,3.0,99,0.00,,,0.10,weatherlink.com 1.10,2013-02-04 05:28:00,
2013-02-03 21:43:00,43.4,43.0,30.27,South,171,0.0,2.0,99,0.00,,,0.10,weatherlink.com 1.10,2013-02-04 05:43:00,
2013-02-03 21:58:00,43.5,43.0,30.27,South,171,0.0,3.0,99,0.00,,,0.10,weatherlink.com 1.10,2013-02-04 05:58:00,
2013-02-03 22:13:00,43.5,43.0,30.27,South,171,0.0,3.0,99,0.00,,,0.10,weatherlink.com 1.10,2013-02-04 06:13:00,
2013-02-03 22:29:00,43.5,43.0,30.27,South,171,0.0,0.0,99,0.00,,,0.10,weatherlink.com 1.10,2013-02-04 06:29:00,
2013-02-03 22:43:00,43.5,43.0,30.27,SSW,199,3.0,3.0,99,0.00,,,0.10,weatherlink.com 1.10,2013-02-04 06:43:00,
2013-02-03 22:58:00,43.4,43.0,30.27,SSW,202,2.0,4.0,99,0.00,,,0.10,weatherlink.com 1.10,2013-02-04 06:58:00,
2013-02-03 23:14:00,43.4,43.0,30.27,South,182,0.0,4.0,99,0.00,,,0.10,weatherlink.com 1.10,2013-02-04 07:14:00,
2013-02-03 23:29:00,43.3,43.0,30.27,South,186,0.0,4.0,99,0.00,,,0.10,weatherlink.com 1.10,2013-02-04 07:29:00,
2013-02-03 23:44:00,43.2,43.0,30.26,SSE,160,0.0,4.0,99,0.00,,,0.10,weatherlink.com 1.10,2013-02-04 07:44:00,
2013-02-03 23:59:00,43.1,43.0,30.25,SW,219,0.0,5.0,99,0.00,,,0.10,weatherlink.com 1.10,2013-02-04 07:59:00,